Time,TemperatureF,DewpointF,PressureIn,WindDirection,WindDirectionDegrees,WindSpeedMPH,WindSpeedGustMPH,Humidity,HourlyPrecipIn,Conditions,Clouds,dailyrainin,SoftwareType,DateUTC
2013-09-12 00:01:00,66.6,63.5,29.92,NNW,337,0.0,0.0,90,0.08,,,0.00,WUHU21636XXSP,2013-09-12 04:01:00,
2013-09-12 00:06:00,66.6,63.5,29.92,NNW,337,1.3,1.5,90,0.08,,,0.00,WUHU21636XXSP,2013-09-12 04:06:00,
2013-09-12 00:11:00,66.6,63.7,29.92,NNW,337,1.7,10.5,91,0.08,,,0.00,WUHU21636XXSP,2013-09-12 04:11:00,
2013-09-12 00:16:00,66.6,63.7,29.92,NW,315,3.8,10.5,91,0.08,,,0.00,WUHU21636XXSP,2013-09-12 04:16:00,
2013-09-12 00:21:00,66.6,63.7,29.91,NW,315,0.0,3.8,91,0.08,,,0.00,WUHU21636XXSP,2013-09-12 04:21:00,
2013-09-12 00:26:00,66.4,63.5,29.92,NW,315,0.0,0.0,91,0.08,,,0.00,WUHU21636XXSP,2013-09-12 04:26:00,
2013-09-12 00:31:00,66.0,63.0,29.92,NW,315,0.0,0.0,90,0.08,,,0.00,WUHU21636XXSP,2013-09-12 04:31:00,
2013-09-12 00:36:00,66.0,63.0,29.92,NW,315,2.9,2.9,90,0.08,,,0.00,WUHU21636XXSP,2013-09-12 04:36:00,
2013-09-12 00:41:00,65.8,62.8,29.92,NW,315,0.0,2.9,90,0.08,,,0.00,WUHU21636XXSP,2013-09-12 04:41:00,
2013-09-12 00:46:00,65.8,62.8,29.91,NW,315,0.0,2.9,90,0.08,,,0.00,WUHU21636XXSP,2013-09-12 04:46:00,
2013-09-12 00:51:00,65.5,62.4,29.91,NW,315,0.0,0.0,90,0.08,,,0.00,WUHU21636XXSP,2013-09-12 04:51:00,
2013-09-12 00:56:00,65.5,62.4,29.91,NW,315,0.0,0.0,90,0.08,,,0.00,WUHU21636XXSP,2013-09-12 04:56:00,
2013-09-12 01:01:00,65.1,62.1,29.92,NW,315,0.0,0.0,90,0.08,,,0.00,WUHU21636XXSP,2013-09-12 05:01:00,
2013-09-12 01:06:00,64.9,61.9,29.92,NW,315,0.0,0.0,90,0.00,,,0.00,WUHU21636XXSP,2013-09-12 05:06:00,
2013-09-12 01:11:00,64.8,61.7,29.92,NW,315,0.0,0.0,90,0.00,,,0.00,WUHU21636XXSP,2013-09-12 05:11:00,
2013-09-12 01:16:00,64.8,61.7,29.92,NW,315,0.0,23.5,90,0.00,,,0.00,WUHU21636XXSP,2013-09-12 05:16:00,
2013-09-12 01:21:00,64.6,61.5,29.92,NW,315,0.0,23.5,90,0.00,,,0.00,WUHU21636XXSP,2013-09-12 05:21:00,
2013-09-12 01:26:00,64.2,61.0,29.92,NW,315,0.0,0.0,90,0.00,,,0.00,WUHU21636XXSP,2013-09-12 05:26:00,
2013-09-12 01:31:00,64.0,61.2,29.91,NW,315,0.0,0.0,90,0.00,,,0.00,WUHU21636XXSP,2013-09-12 05:31:00,
2013-09-12 01:36:00,64.0,61.2,29.91,NW,315,0.0,0.0,90,0.00,,,0.00,WUHU21636XXSP,2013-09-12 05:36:00,
2013-09-12 01:41:00,63.7,60.8,29.91,NW,315,0.0,0.0,90,0.00,,,0.00,WUHU21636XXSP,2013-09-12 05:41:00,
2013-09-12 01:46:00,63.5,60.6,29.92,NW,315,0.0,0.0,90,0.00,,,0.00,WUHU21636XXSP,2013-09-12 05:46:00,
2013-09-12 01:51:00,63.3,60.4,29.92,NW,315,0.0,0.0,90,0.00,,,0.00,WUHU21636XXSP,2013-09-12 05:51:00,
2013-09-12 01:56:00,62.8,59.9,29.92,NW,315,0.0,0.0,90,0.00,,,0.00,WUHU21636XXSP,2013-09-12 05:56:00,
2013-09-12 02:01:00,62.8,59.9,29.92,NW,315,0.0,0.0,90,0.00,,,0.00,WUHU21636XXSP,2013-09-12 06:01:00,
2013-09-12 02:06:00,62.4,59.5,29.91,NW,315,0.0,0.0,90,0.00,,,0.00,WUHU21636XXSP,2013-09-12 06:06:00,
2013-09-12 02:11:00,62.2,59.4,29.92,NW,315,0.0,0.0,90,0.00,,,0.00,WUHU21636XXSP,2013-09-12 06:11:00,
2013-09-12 02:16:00,62.2,59.4,29.92,NW,315,0.0,0.0,90,0.00,,,0.00,WUHU21636XXSP,2013-09-12 06:16:00,
2013-09-12 02:21:00,62.2,59.4,29.92,NW,315,0.0,0.0,90,0.00,,,0.00,WUHU21636XXSP,2013-09-12 06:21:00,
2013-09-12 02:26:00,62.2,59.4,29.92,NW,315,0.0,0.0,90,0.00,,,0.00,WUHU21636XXSP,2013-09-12 06:26:00,
2013-09-12 02:31:00,62.2,59.4,29.92,NW,315,0.0,2.2,91,0.00,,,0.00,WUHU21636XXSP,2013-09-12 06:31:00,
2013-09-12 02:36:00,62.2,59.4,29.92,NW,315,0.0,2.2,91,0.00,,,0.00,WUHU21636XXSP,2013-09-12 06:36:00,
2013-09-12 02:41:00,62.2,59.5,29.92,NNW,337,6.7,7.6,91,0.00,,,0.00,WUHU21636XXSP,2013-09-12 06:41:00,
2013-09-12 02:46:00,62.4,59.7,29.92,NW,315,1.7,7.6,91,0.00,,,0.00,WUHU21636XXSP,2013-09-12 06:46:00,
2013-09-12 02:51:00,62.4,59.7,29.92,NW,315,2.9,7.1,90,0.00,,,0.00,WUHU21636XXSP,2013-09-12 06:51:00,
2013-09-12 02:56:00,62.2,59.5,29.92,NW,315,0.8,3.8,90,0.00,,,0.00,WUHU21636XXSP,2013-09-12 06:56:00,
2013-09-12 03:01:00,62.2,59.4,29.92,NW,315,4.2,4.2,90,0.00,,,0.00,WUHU21636XXSP,2013-09-12 07:01:00,
2013-09-12 03:06:00,62.2,59.5,29.92,NW,315,0.0,4.2,91,0.00,,,0.00,WUHU21636XXSP,2013-09-12 07:06:00,
2013-09-12 03:11:00,62.1,59.2,29.92,NW,315,6.4,7.1,91,0.00,,,0.00,WUHU21636XXSP,2013-09-12 07:11:00,
2013-09-12 03:16:00,61.9,59.2,29.92,NW,315,0.0,7.1,91,0.00,,,0.00,WUHU21636XXSP,2013-09-12 07:16:00,
2013-09-12 03:21:00,61.9,59.2,29.92,NNW,337,0.0,4.6,91,0.00,,,0.00,WUHU21636XXSP,2013-09-12 07:21:00,
2013-09-12 03:26:00,61.5,58.8,29.92,NNW,337,0.0,4.6,91,0.00,,,0.00,WUHU21636XXSP,2013-09-12 07:26:00,
2013-09-12 03:31:00,61.3,58.6,29.92,NNW,337,0.0,0.0,91,0.00,,,0.00,WUHU21636XXSP,2013-09-12 07:31:00,
2013-09-12 03:36:00,61.0,58.3,29.91,NNW,337,0.0,0.0,91,0.00,,,0.00,WUHU21636XXSP,2013-09-12 07:36:00,
2013-09-12 03:41:00,60.6,57.7,29.92,NNW,337,0.0,0.0,90,0.00,,,0.00,WUHU21636XXSP,2013-09-12 07:41:00,
2013-09-12 03:46:00,60.3,57.4,29.92,NNW,337,0.0,0.0,90,0.00,,,0.00,WUHU21636XXSP,2013-09-12 07:46:00,
2013-09-12 03:51:00,59.9,57.0,29.92,NW,315,0.0,7.1,90,0.00,,,0.00,WUHU21636XXSP,2013-09-12 07:51:00,
2013-09-12 03:56:00,59.5,56.7,29.92,NNW,337,0.0,7.1,90,0.00,,,0.00,WUHU21636XXSP,2013-09-12 07:56:00,
2013-09-12 04:01:00,59.4,56.5,29.92,NNW,337,0.0,0.0,90,0.00,,,0.00,WUHU21636XXSP,2013-09-12 08:01:00,
2013-09-12 04:06:00,59.0,56.1,29.92,NNW,337,0.0,0.0,90,0.00,,,0.00,WUHU21636XXSP,2013-09-12 08:06:00,
2013-09-12 04:11:00,59.0,56.1,29.92,NNW,337,0.0,0.0,90,0.00,,,0.00,WUHU21636XXSP,2013-09-12 08:11:00,
2013-09-12 04:16:00,58.8,55.9,29.92,NNW,337,0.0,0.0,90,0.00,,,0.00,WUHU21636XXSP,2013-09-12 08:16:00,
2013-09-12 04:21:00,58.6,55.8,29.92,NNW,337,0.0,0.0,90,0.00,,,0.00,WUHU21636XXSP,2013-09-12 08:21:00,
2013-09-12 04:26:00,58.6,55.8,29.91,NNW,337,0.0,0.0,91,0.00,,,0.00,WUHU21636XXSP,2013-09-12 08:26:00,
2013-09-12 04:31:00,58.3,55.6,29.91,NW,315,0.0,0.0,91,0.00,,,0.00,WUHU21636XXSP,2013-09-12 08:31:00,
2013-09-12 04:37:00,58.3,55.6,29.91,NW,315,0.0,0.0,90,0.00,,,0.00,WUHU21636XXSP,2013-09-12 08:37:00,
2013-09-12 04:42:00,58.1,55.4,29.92,NW,315,0.0,0.0,91,0.00,,,0.00,WUHU21636XXSP,2013-09-12 08:42:00,
2013-09-12 04:47:00,58.3,55.6,29.92,NW,315,0.0,0.0,91,0.02,,,0.02,WUHU21636XXSP,2013-09-12 08:47:00,
2013-09-12 04:52:00,58.1,55.4,29.91,NW,315,0.0,0.0,91,0.02,,,0.02,WUHU21636XXSP,2013-09-12 08:52:00,
2013-09-12 04:57:00,58.1,55.4,29.91,NW,315,0.0,0.0,91,0.02,,,0.02,WUHU21636XXSP,2013-09-12 08:57:00,
2013-09-12 05:02:00,58.1,55.4,29.91,NNW,337,0.0,0.0,91,0.02,,,0.02,WUHU21636XXSP,2013-09-12 09:02:00,
2013-09-12 05:07:00,58.1,55.4,29.91,NNW,337,0.0,0.0,91,0.02,,,0.02,WUHU21636XXSP,2013-09-12 09:07:00,
2013-09-12 05:12:00,57.9,55.2,29.91,NNW,337,0.0,0.0,91,0.02,,,0.02,WUHU21636XXSP,2013-09-12 09:12:00,
2013-09-12 05:17:00,58.1,55.4,29.91,NW,315,0.0,0.0,91,0.02,,,0.02,WUHU21636XXSP,2013-09-12 09:17:00,
2013-09-12 05:22:00,58.6,55.9,29.91,NNW,337,0.0,0.0,91,0.02,,,0.02,WUHU21636XXSP,2013-09-12 09:22:00,
2013-09-12 05:27:00,58.8,56.1,29.91,NNW,337,0.0,0.0,91,0.02,,,0.02,WUHU21636XXSP,2013-09-12 09:27:00,
2013-09-12 05:32:00,59.0,56.3,29.91,NNW,337,0.0,0.0,91,0.02,,,0.02,WUHU21636XXSP,2013-09-12 09:32:00,
2013-09-12 05:37:00,59.0,56.3,29.91,NNW,337,0.0,0.0,91,0.02,,,0.02,WUHU21636XXSP,2013-09-12 09:37:00,
2013-09-12 05:42:00,59.0,56.3,29.91,NNW,337,0.0,0.0,91,0.02,,,0.02,WUHU21636XXSP,2013-09-12 09:42:00,
2013-09-12 05:47:00,58.8,56.1,29.91,NNW,337,0.0,0.0,91,0.02,,,0.02,WUHU21636XXSP,2013-09-12 09:47:00,
2013-09-12 05:52:00,58.8,56.1,29.91,NNW,337,0.0,0.0,91,0.02,,,0.02,WUHU21636XXSP,2013-09-12 09:52:00,
2013-09-12 05:57:00,58.8,56.1,29.91,NNW,337,0.0,0.0,91,0.02,,,0.02,WUHU21636XXSP,2013-09-12 09:57:00,
2013-09-12 06:02:00,59.0,56.3,29.91,NNW,337,0.0,0.0,91,0.00,,,0.02,WUHU21636XXSP,2013-09-12 10:02:00,
2013-09-12 06:07:00,59.0,56.3,29.92,NNW,337,0.0,0.0,91,0.00,,,0.02,WUHU21636XXSP,2013-09-12 10:07:00,
2013-09-12 06:12:00,59.2,56.5,29.92,NW,315,0.0,0.0,91,0.00,,,0.02,WUHU21636XXSP,2013-09-12 10:12:00,
2013-09-12 06:17:00,59.2,56.5,29.92,NNW,337,0.0,0.0,91,0.00,,,0.02,WUHU21636XXSP,2013-09-12 10:17:00,
2013-09-12 06:22:00,59.0,56.3,29.92,NW,315,0.0,0.0,91,0.00,,,0.02,WUHU21636XXSP,2013-09-12 10:22:00,
2013-09-12 06:27:00,59.0,56.3,29.92,NNW,337,0.0,0.0,91,0.00,,,0.02,WUHU21636XXSP,2013-09-12 10:27:00,
2013-09-12 06:32:00,58.8,56.1,29.92,NNW,337,0.0,0.0,91,0.00,,,0.02,WUHU21636XXSP,2013-09-12 10:32:00,
2013-09-12 06:37:00,58.6,55.9,29.92,NW,315,0.0,0.0,91,0.00,,,0.02,WUHU21636XXSP,2013-09-12 10:37:00,
2013-09-12 06:42:00,57.9,55.2,29.92,NW,315,0.0,0.0,91,0.00,,,0.02,WUHU21636XXSP,2013-09-12 10:42:00,
2013-09-12 06:47:00,57.7,55.0,29.92,NW,315,0.0,0.0,91,0.00,,,0.02,WUHU21636XXSP,2013-09-12 10:47:00,
2013-09-12 06:52:00,57.4,54.7,29.92,NW,315,0.0,0.0,91,0.00,,,0.02,WUHU21636XXSP,2013-09-12 10:52:00,
2013-09-12 06:57:00,57.2,54.3,29.92,NW,315,0.0,0.0,91,0.00,,,0.02,WUHU21636XXSP,2013-09-12 10:57:00,
2013-09-12 07:02:00,56.8,54.1,29.92,NNW,337,0.0,0.0,91,0.00,,,0.02,WUHU21636XXSP,2013-09-12 11:02:00,
2013-09-12 07:07:00,57.0,54.3,29.92,NW,315,0.0,0.0,91,0.00,,,0.02,WUHU21636XXSP,2013-09-12 11:07:00,
2013-09-12 07:12:00,57.2,54.5,29.92,NW,315,0.0,0.0,91,0.00,,,0.02,WUHU21636XXSP,2013-09-12 11:12:00,
2013-09-12 07:17:00,57.4,54.7,29.92,NNW,337,0.0,0.0,91,0.00,,,0.02,WUHU21636XXSP,2013-09-12 11:17:00,
2013-09-12 07:22:00,57.4,54.7,29.92,NNW,337,0.0,0.0,91,0.00,,,0.02,WUHU21636XXSP,2013-09-12 11:22:00,
2013-09-12 07:27:00,57.6,54.9,29.93,NNW,337,0.0,0.0,91,0.00,,,0.02,WUHU21636XXSP,2013-09-12 11:27:00,
2013-09-12 07:32:00,57.7,55.0,29.93,NNW,337,0.0,0.0,91,0.00,,,0.02,WUHU21636XXSP,2013-09-12 11:32:00,
2013-09-12 07:37:00,57.9,55.2,29.93,NNW,337,0.0,0.0,91,0.00,,,0.02,WUHU21636XXSP,2013-09-12 11:37:00,
2013-09-12 07:42:00,58.1,55.4,29.93,NW,315,0.0,0.0,91,0.00,,,0.02,WUHU21636XXSP,2013-09-12 11:42:00,
2013-09-12 07:47:00,58.3,55.6,29.93,NNW,337,0.0,0.0,91,0.00,,,0.02,WUHU21636XXSP,2013-09-12 11:47:00,
2013-09-12 07:52:00,58.6,55.9,29.93,NW,315,0.0,0.0,91,0.00,,,0.02,WUHU21636XXSP,2013-09-12 11:52:00,
2013-09-12 07:57:00,58.8,56.1,29.94,NW,315,0.8,0.8,91,0.00,,,0.02,WUHU21636XXSP,2013-09-12 11:57:00,
2013-09-12 08:02:00,59.5,56.8,29.94,NW,315,2.6,2.6,91,0.00,,,0.02,WUHU21636XXSP,2013-09-12 12:02:00,
2013-09-12 08:07:00,59.9,57.2,29.94,NW,315,0.0,2.6,91,0.00,,,0.02,WUHU21636XXSP,2013-09-12 12:07:00,
2013-09-12 08:12:00,60.1,57.4,29.94,NW,315,0.0,2.6,91,0.00,,,0.02,WUHU21636XXSP,2013-09-12 12:12:00,
2013-09-12 08:17:00,60.6,57.7,29.94,NW,315,3.8,3.8,90,0.00,,,0.02,WUHU21636XXSP,2013-09-12 12:17:00,
2013-09-12 08:22:00,60.6,57.7,29.94,NW,315,1.7,3.8,90,0.00,,,0.02,WUHU21636XXSP,2013-09-12 12:22:00,
2013-09-12 08:27:00,60.6,57.7,29.94,NNW,337,0.6,14.0,90,0.00,,,0.02,WUHU21636XXSP,2013-09-12 12:27:00,
2013-09-12 08:32:00,60.4,57.7,29.95,NW,315,5.8,14.0,91,0.00,,,0.02,WUHU21636XXSP,2013-09-12 12:32:00,
2013-09-12 08:37:00,60.3,57.6,29.95,NW,315,2.6,12.5,91,0.00,,,0.02,WUHU21636XXSP,2013-09-12 12:37:00,
2013-09-12 08:42:00,60.4,57.7,29.95,NW,315,1.1,12.5,91,0.00,,,0.02,WUHU21636XXSP,2013-09-12 12:42:00,
2013-09-12 08:47:00,60.6,57.9,29.95,NNW,337,2.2,9.6,91,0.00,,,0.02,WUHU21636XXSP,2013-09-12 12:47:00,
2013-09-12 08:52:00,60.6,57.9,29.95,NNW,337,1.3,10.7,91,0.00,,,0.02,WUHU21636XXSP,2013-09-12 12:52:00,
2013-09-12 08:57:00,60.6,57.9,29.95,NNW,337,3.5,10.7,91,0.00,,,1.60,WUHU21636XXSP,2013-09-12 12:57:00,
2013-09-12 09:02:00,61.0,58.3,29.95,NW,315,2.2,6.2,91,0.00,,,1.60,WUHU21636XXSP,2013-09-12 13:02:00,
2013-09-12 09:07:00,61.3,58.5,29.95,NE,45,0.0,6.2,91,0.00,,,1.60,WUHU21636XXSP,2013-09-12 13:07:00,
2013-09-12 09:12:00,61.7,59.0,29.95,NW,315,0.0,4.0,91,0.00,,,1.60,WUHU21636XXSP,2013-09-12 13:12:00,
2013-09-12 09:17:00,61.9,59.0,29.95,NW,315,1.7,3.3,90,0.00,,,1.60,WUHU21636XXSP,2013-09-12 13:17:00,
2013-09-12 09:22:00,62.4,58.8,29.95,NW,315,2.9,3.8,88,0.00,,,1.60,WUHU21636XXSP,2013-09-12 13:22:00,
2013-09-12 09:27:00,62.2,58.3,29.95,NNW,337,2.2,3.8,87,0.00,,,1.60,WUHU21636XXSP,2013-09-12 13:27:00,
2013-09-12 09:32:00,61.9,58.3,29.95,NW,315,2.2,12.7,88,0.00,,,1.60,WUHU21636XXSP,2013-09-12 13:32:00,
2013-09-12 09:37:00,61.5,57.9,29.95,NW,315,1.5,15.2,88,0.00,,,1.60,WUHU21636XXSP,2013-09-12 13:37:00,
2013-09-12 09:42:00,61.5,57.2,29.96,NW,315,7.6,15.2,86,0.00,,,1.60,WUHU21636XXSP,2013-09-12 13:42:00,
2013-09-12 09:47:00,62.2,57.6,29.96,WNW,292,5.8,19.0,85,0.00,,,1.60,WUHU21636XXSP,2013-09-12 13:47:00,
2013-09-12 09:52:00,62.1,56.7,29.96,NW,315,1.7,19.0,82,0.00,,,1.60,WUHU21636XXSP,2013-09-12 13:52:00,
2013-09-12 09:57:00,62.6,56.5,29.96,NNE,22,0.6,12.7,81,0.00,,,1.60,WUHU21636XXSP,2013-09-12 13:57:00,
2013-09-12 10:02:00,63.3,57.6,29.96,NNW,337,2.4,15.6,82,0.00,,,1.60,WUHU21636XXSP,2013-09-12 14:02:00,
2013-09-12 10:07:00,63.7,56.7,29.97,NNW,337,0.0,15.6,78,0.00,,,1.60,WUHU21636XXSP,2013-09-12 14:07:00,
2013-09-12 10:12:00,63.0,55.9,29.97,NNW,337,1.7,9.3,78,0.00,,,1.60,WUHU21636XXSP,2013-09-12 14:12:00,
2013-09-12 10:17:00,63.0,56.7,29.97,NNW,337,0.0,9.3,80,0.00,,,1.60,WUHU21636XXSP,2013-09-12 14:17:00,
2013-09-12 10:22:00,63.5,56.1,29.97,NW,315,0.0,11.4,77,0.00,,,1.60,WUHU21636XXSP,2013-09-12 14:22:00,
2013-09-12 10:27:00,63.7,56.8,29.97,NNW,337,6.0,32.4,78,0.00,,,1.60,WUHU21636XXSP,2013-09-12 14:27:00,
2013-09-12 10:32:00,64.4,56.7,29.97,East,90,2.2,32.4,76,0.00,,,1.60,WUHU21636XXSP,2013-09-12 14:32:00,
2013-09-12 10:37:00,65.5,55.8,29.98,NW,315,7.6,15.6,71,0.00,,,1.60,WUHU21636XXSP,2013-09-12 14:37:00,
2013-09-12 10:42:00,65.5,57.9,29.98,NNW,337,0.4,15.6,74,0.00,,,1.60,WUHU21636XXSP,2013-09-12 14:42:00,
2013-09-12 10:47:00,65.8,55.4,29.97,NNE,22,8.5,14.3,71,0.00,,,1.60,WUHU21636XXSP,2013-09-12 14:47:00,
2013-09-12 10:52:00,64.0,54.1,29.98,NW,315,5.5,19.2,70,0.00,,,1.60,WUHU21636XXSP,2013-09-12 14:52:00,
2013-09-12 10:57:00,64.6,55.2,29.98,WNW,292,2.4,19.2,72,0.00,,,1.60,WUHU21636XXSP,2013-09-12 14:57:00,
2013-09-12 11:02:00,64.9,54.9,29.98,NNW,337,4.4,20.8,70,0.00,,,1.60,WUHU21636XXSP,2013-09-12 15:02:00,
2013-09-12 11:07:00,64.9,56.1,29.98,NW,315,6.2,20.8,72,0.00,,,1.60,WUHU21636XXSP,2013-09-12 15:07:00,
2013-09-12 11:12:00,65.3,55.6,29.98,NNE,22,2.9,23.7,71,0.00,,,1.60,WUHU21636XXSP,2013-09-12 15:12:00,
2013-09-12 11:17:00,66.4,57.0,29.98,WNW,292,3.8,23.7,72,0.00,,,1.60,WUHU21636XXSP,2013-09-12 15:17:00,
2013-09-12 11:22:00,66.0,55.2,29.98,NE,45,3.8,17.6,69,0.00,,,1.60,WUHU21636XXSP,2013-09-12 15:22:00,
2013-09-12 11:27:00,64.6,54.9,29.99,NNW,337,6.0,19.6,70,0.00,,,1.60,WUHU21636XXSP,2013-09-12 15:27:00,
2013-09-12 11:32:00,64.0,55.6,29.99,North,0,4.2,19.6,74,0.00,,,1.60,WUHU21636XXSP,2013-09-12 15:32:00,
2013-09-12 11:37:00,64.9,55.2,29.99,NNE,22,2.2,12.5,71,0.00,,,1.60,WUHU21636XXSP,2013-09-12 15:37:00,
2013-09-12 11:42:00,64.2,52.5,29.99,WSW,247,2.4,15.8,66,0.00,,,1.60,WUHU21636XXSP,2013-09-12 15:42:00,
2013-09-12 11:47:00,64.4,54.5,29.99,ENE,67,2.4,15.8,70,0.00,,,1.60,WUHU21636XXSP,2013-09-12 15:47:00,
2013-09-12 11:52:00,63.7,53.8,30.00,ESE,112,1.1,17.0,70,0.00,,,1.60,WUHU21636XXSP,2013-09-12 15:52:00,
2013-09-12 11:57:00,62.8,52.9,30.00,SSE,157,3.1,17.0,70,0.00,,,1.60,WUHU21636XXSP,2013-09-12 15:57:00,
2013-09-12 12:02:00,62.8,53.6,30.00,NE,45,1.5,19.4,72,0.00,,,1.60,WUHU21636XXSP,2013-09-12 16:02:00,
2013-09-12 12:07:00,62.8,53.2,30.00,NW,315,8.0,22.8,71,0.00,,,1.60,WUHU21636XXSP,2013-09-12 16:07:00,
2013-09-12 12:12:00,62.4,53.6,30.00,NW,315,5.1,22.8,73,0.00,,,1.60,WUHU21636XXSP,2013-09-12 16:12:00,
2013-09-12 12:17:00,64.2,54.3,29.99,NE,45,6.4,17.6,70,0.00,,,1.60,WUHU21636XXSP,2013-09-12 16:17:00,
2013-09-12 12:22:00,63.7,53.8,30.00,WNW,292,1.5,23.7,70,0.00,,,1.60,WUHU21636XXSP,2013-09-12 16:22:00,
2013-09-12 12:27:00,63.3,52.9,30.00,NW,315,3.1,23.7,69,0.00,,,1.60,WUHU21636XXSP,2013-09-12 16:27:00,
2013-09-12 12:32:00,63.3,53.4,30.00,NNE,22,2.6,15.8,69,0.00,,,1.60,WUHU21636XXSP,2013-09-12 16:32:00,
2013-09-12 12:37:00,64.0,53.6,30.00,NW,315,0.6,15.8,69,0.00,,,1.60,WUHU21636XXSP,2013-09-12 16:37:00,
2013-09-12 12:42:00,63.7,53.2,30.00,NE,45,3.3,11.8,69,0.00,,,1.60,WUHU21636XXSP,2013-09-12 16:42:00,
2013-09-12 12:47:00,63.0,52.5,30.00,WNW,292,2.9,14.9,69,0.00,,,1.60,WUHU21636XXSP,2013-09-12 16:47:00,
2013-09-12 12:52:00,62.8,51.6,30.00,NW,315,10.7,24.8,67,0.00,,,1.60,WUHU21636XXSP,2013-09-12 16:52:00,
2013-09-12 12:57:00,62.8,52.3,30.00,North,0,8.5,24.8,69,0.00,,,1.60,WUHU21636XXSP,2013-09-12 16:57:00,
2013-09-12 13:02:00,63.0,52.2,30.00,NNE,22,5.8,31.3,68,0.00,,,1.60,WUHU21636XXSP,2013-09-12 17:02:00,
2013-09-12 13:07:00,62.8,52.0,30.00,North,0,2.9,31.3,68,0.00,,,1.60,WUHU21636XXSP,2013-09-12 17:07:00,
2013-09-12 13:12:00,62.8,52.0,30.00,WSW,247,1.1,20.8,66,0.00,,,1.60,WUHU21636XXSP,2013-09-12 17:12:00,
2013-09-12 13:17:00,63.0,51.8,30.00,North,0,9.1,10.0,67,0.00,,,1.60,WUHU21636XXSP,2013-09-12 17:17:00,
2013-09-12 13:22:00,62.6,50.2,30.00,NW,315,2.4,17.6,64,0.00,,,1.60,WUHU21636XXSP,2013-09-12 17:22:00,
2013-09-12 13:27:00,63.0,52.2,30.00,SSW,202,2.6,17.6,68,0.00,,,1.60,WUHU21636XXSP,2013-09-12 17:27:00,
2013-09-12 13:32:00,64.0,51.1,30.00,SSE,157,3.1,8.2,63,0.00,,,1.60,WUHU21636XXSP,2013-09-12 17:32:00,
2013-09-12 13:37:00,62.8,51.1,30.00,NNE,22,2.6,21.9,66,0.00,,,1.60,WUHU21636XXSP,2013-09-12 17:37:00,
2013-09-12 13:42:00,62.8,51.1,30.01,ESE,112,4.6,21.9,66,0.00,,,1.60,WUHU21636XXSP,2013-09-12 17:42:00,
2013-09-12 13:47:00,61.9,49.5,30.01,NNW,337,3.3,15.6,64,0.00,,,1.60,WUHU21636XXSP,2013-09-12 17:47:00,
2013-09-12 13:52:00,61.0,50.4,30.01,NW,315,3.3,21.9,68,0.00,,,1.60,WUHU21636XXSP,2013-09-12 17:52:00,
2013-09-12 13:57:00,61.0,50.7,30.01,NNW,337,6.7,21.9,69,0.00,,,1.60,WUHU21636XXSP,2013-09-12 17:57:00,
2013-09-12 14:02:00,61.2,50.5,30.00,NW,315,3.8,19.2,68,0.00,,,1.60,WUHU21636XXSP,2013-09-12 18:02:00,
2013-09-12 14:07:00,61.3,50.2,30.00,NNW,337,9.1,21.9,67,0.00,,,1.60,WUHU21636XXSP,2013-09-12 18:07:00,
2013-09-12 14:12:00,61.3,50.2,30.00,NNW,337,8.7,21.9,67,0.00,,,1.60,WUHU21636XXSP,2013-09-12 18:12:00,
2013-09-12 14:17:00,61.3,50.2,30.00,North,0,7.3,25.7,68,0.00,,,1.60,WUHU21636XXSP,2013-09-12 18:17:00,
2013-09-12 14:22:00,61.7,51.4,30.00,NNW,337,8.5,25.7,69,0.00,,,1.60,WUHU21636XXSP,2013-09-12 18:22:00,
2013-09-12 14:27:00,61.3,49.8,30.00,NW,315,3.8,20.1,66,0.00,,,1.60,WUHU21636XXSP,2013-09-12 18:27:00,
2013-09-12 14:32:00,61.2,50.0,30.00,NW,315,0.0,20.1,67,0.00,,,1.60,WUHU21636XXSP,2013-09-12 18:32:00,
2013-09-12 14:37:00,61.0,51.1,30.00,NW,315,0.0,16.7,67,0.00,,,1.60,WUHU21636XXSP,2013-09-12 18:37:00,
2013-09-12 14:42:00,60.4,49.8,30.01,NW,315,10.7,16.3,68,0.00,,,1.60,WUHU21636XXSP,2013-09-12 18:42:00,
2013-09-12 14:47:00,59.9,49.6,30.01,NNE,22,7.8,19.2,69,0.00,,,1.60,WUHU21636XXSP,2013-09-12 18:47:00,
2013-09-12 14:52:00,60.1,49.8,30.01,WNW,292,0.0,19.2,71,0.00,,,1.60,WUHU21636XXSP,2013-09-12 18:52:00,
2013-09-12 14:57:00,60.4,49.8,30.01,NW,315,8.2,14.3,68,0.00,,,1.60,WUHU21636XXSP,2013-09-12 18:57:00,
2013-09-12 15:02:00,60.3,49.6,30.01,North,0,2.9,18.7,68,0.00,,,1.60,WUHU21636XXSP,2013-09-12 19:02:00,
2013-09-12 15:07:00,59.7,49.5,30.01,NNW,337,2.4,18.7,69,0.00,,,1.60,WUHU21636XXSP,2013-09-12 19:07:00,
2013-09-12 15:12:00,59.5,49.3,30.01,NNW,337,8.2,19.0,69,0.00,,,1.60,WUHU21636XXSP,2013-09-12 19:12:00,
2013-09-12 15:17:00,59.5,49.8,30.01,NW,315,0.6,19.0,70,0.00,,,1.60,WUHU21636XXSP,2013-09-12 19:17:00,
2013-09-12 15:22:00,60.1,49.8,30.01,East,90,3.5,16.7,69,0.00,,,1.60,WUHU21636XXSP,2013-09-12 19:22:00,
2013-09-12 15:27:00,60.1,49.8,30.01,NW,315,4.4,15.8,69,0.00,,,1.60,WUHU21636XXSP,2013-09-12 19:27:00,
2013-09-12 15:32:00,59.5,49.3,30.01,NW,315,1.7,22.3,69,0.00,,,1.60,WUHU21636XXSP,2013-09-12 19:32:00,
2013-09-12 15:37:00,59.5,48.9,30.01,NW,315,3.1,22.3,68,0.00,,,1.60,WUHU21636XXSP,2013-09-12 19:37:00,
2013-09-12 15:42:00,59.7,49.1,30.01,NW,315,0.0,16.1,68,0.00,,,1.60,WUHU21636XXSP,2013-09-12 19:42:00,
2013-09-12 15:47:00,60.3,49.3,30.00,WNW,292,1.5,14.3,67,0.00,,,1.60,WUHU21636XXSP,2013-09-12 19:47:00,
2013-09-12 15:52:00,60.6,49.1,30.00,WNW,292,4.2,14.3,66,0.00,,,1.60,WUHU21636XXSP,2013-09-12 19:52:00,
2013-09-12 15:57:00,63.1,50.7,30.00,North,0,1.1,14.9,64,0.00,,,1.60,WUHU21636XXSP,2013-09-12 19:57:00,
2013-09-12 16:02:00,63.1,48.7,30.00,NW,315,10.0,15.4,60,0.00,,,1.60,WUHU21636XXSP,2013-09-12 20:02:00,
2013-09-12 16:07:00,61.3,48.6,30.00,WNW,292,4.6,22.8,63,0.00,,,1.60,WUHU21636XXSP,2013-09-12 20:07:00,
2013-09-12 16:12:00,61.0,49.1,30.00,NW,315,2.4,22.8,65,0.00,,,1.60,WUHU21636XXSP,2013-09-12 20:12:00,
2013-09-12 16:17:00,60.8,48.9,30.00,NNW,337,5.1,19.9,65,0.00,,,1.60,WUHU21636XXSP,2013-09-12 20:17:00,
2013-09-12 16:22:00,60.8,49.3,30.00,NNW,337,8.5,19.9,66,0.00,,,1.60,WUHU21636XXSP,2013-09-12 20:22:00,
2013-09-12 16:27:00,60.8,50.2,30.00,North,0,6.2,19.0,68,0.00,,,1.60,WUHU21636XXSP,2013-09-12 20:27:00,
2013-09-12 16:32:00,60.6,49.1,30.00,NE,45,1.7,20.3,66,0.00,,,1.60,WUHU21636XXSP,2013-09-12 20:32:00,
2013-09-12 16:37:00,60.1,49.1,30.00,North,0,2.6,20.3,67,0.00,,,1.60,WUHU21636XXSP,2013-09-12 20:37:00,
2013-09-12 16:42:00,59.9,49.3,30.00,North,0,2.4,2.6,68,0.00,,,1.60,WUHU21636XXSP,2013-09-12 20:42:00,
2013-09-12 16:47:00,59.9,49.3,30.00,NNW,337,1.3,2.6,69,0.00,,,1.60,WUHU21636XXSP,2013-09-12 20:47:00,
2013-09-12 16:52:00,59.2,48.6,30.00,NNW,337,8.9,10.9,68,0.00,,,1.60,WUHU21636XXSP,2013-09-12 20:52:00,
2013-09-12 16:57:00,59.0,49.3,30.00,NNE,22,4.2,22.8,70,0.00,,,1.60,WUHU21636XXSP,2013-09-12 20:57:00,
2013-09-12 17:02:00,58.8,48.6,30.00,NW,315,5.5,22.8,69,0.00,,,1.60,WUHU21636XXSP,2013-09-12 21:02:00,
2013-09-12 17:07:00,58.6,48.2,30.00,NW,315,7.1,24.3,69,0.00,,,1.60,WUHU21636XXSP,2013-09-12 21:07:00,
2013-09-12 17:12:00,58.6,48.9,30.00,NW,315,0.0,24.3,70,0.00,,,1.60,WUHU21636XXSP,2013-09-12 21:12:00,
2013-09-12 17:17:00,59.0,49.3,30.00,West,270,3.3,21.2,70,0.00,,,1.60,WUHU21636XXSP,2013-09-12 21:17:00,
2013-09-12 17:22:00,59.0,48.7,30.00,NNW,337,13.4,25.0,69,0.00,,,1.60,WUHU21636XXSP,2013-09-12 21:22:00,
2013-09-12 17:27:00,59.0,48.4,30.00,NW,315,10.9,27.5,68,0.00,,,1.60,WUHU21636XXSP,2013-09-12 21:27:00,
2013-09-12 17:32:00,58.8,47.8,30.00,NNW,337,11.4,27.5,67,0.00,,,1.60,WUHU21636XXSP,2013-09-12 21:32:00,
2013-09-12 17:37:00,58.8,48.2,30.00,North,0,7.8,17.2,68,0.00,,,1.60,WUHU21636XXSP,2013-09-12 21:37:00,
2013-09-12 17:42:00,58.8,48.2,30.00,NW,315,6.9,19.4,68,0.00,,,1.60,WUHU21636XXSP,2013-09-12 21:42:00,
2013-09-12 17:47:00,58.6,48.0,30.00,NNW,337,10.0,19.4,68,0.00,,,1.60,WUHU21636XXSP,2013-09-12 21:47:00,
2013-09-12 17:52:00,58.3,48.0,30.00,North,0,8.0,18.7,69,0.00,,,1.60,WUHU21636XXSP,2013-09-12 21:52:00,
2013-09-12 17:57:00,58.3,47.5,30.00,WNW,292,10.9,19.6,68,0.00,,,1.60,WUHU21636XXSP,2013-09-12 21:57:00,
2013-09-12 18:02:00,57.9,48.2,30.00,NE,45,5.1,24.8,70,0.00,,,1.60,WUHU21636XXSP,2013-09-12 22:02:00,
2013-09-12 18:07:00,57.9,48.9,30.00,North,0,8.7,24.8,72,0.00,,,1.60,WUHU21636XXSP,2013-09-12 22:07:00,
2013-09-12 18:12:00,57.7,48.0,30.00,NE,45,6.4,18.5,70,0.00,,,1.60,WUHU21636XXSP,2013-09-12 22:12:00,
2013-09-12 18:17:00,57.7,48.0,30.00,North,0,0.0,15.6,71,0.00,,,1.60,WUHU21636XXSP,2013-09-12 22:17:00,
2013-09-12 18:22:00,58.5,48.7,30.01,WNW,292,0.0,15.6,70,0.00,,,1.60,WUHU21636XXSP,2013-09-12 22:22:00,
2013-09-12 18:27:00,58.3,48.0,30.01,NNW,337,7.8,15.4,69,0.00,,,1.60,WUHU21636XXSP,2013-09-12 22:27:00,
2013-09-12 18:32:00,57.7,47.5,30.01,NW,315,3.8,15.4,69,0.00,,,1.60,WUHU21636XXSP,2013-09-12 22:32:00,
2013-09-12 18:37:00,57.4,48.0,30.01,NE,45,3.8,15.0,71,0.00,,,1.60,WUHU21636XXSP,2013-09-12 22:37:00,
2013-09-12 18:42:00,57.0,47.3,30.01,NNW,337,2.2,15.0,70,0.00,,,1.60,WUHU21636XXSP,2013-09-12 22:42:00,
2013-09-12 18:47:00,56.8,46.6,30.02,NE,45,0.0,13.1,70,0.00,,,1.60,WUHU21636XXSP,2013-09-12 22:47:00,
2013-09-12 18:52:00,56.3,46.2,30.02,North,0,0.0,12.5,69,0.00,,,1.60,WUHU21636XXSP,2013-09-12 22:52:00,
2013-09-12 18:57:00,56.1,46.0,30.02,NW,315,3.3,32.2,69,0.00,,,1.60,WUHU21636XXSP,2013-09-12 22:57:00,
2013-09-12 19:02:00,55.9,46.2,30.02,NNE,22,4.0,32.2,70,0.00,,,1.60,WUHU21636XXSP,2013-09-12 23:02:00,
2013-09-12 19:07:00,55.9,46.2,30.02,NNE,22,3.8,17.6,70,0.00,,,1.60,WUHU21636XXSP,2013-09-12 23:07:00,
2013-09-12 19:12:00,55.8,46.4,30.02,NE,45,0.6,16.7,71,0.00,,,1.60,WUHU21636XXSP,2013-09-12 23:12:00,
2013-09-12 19:17:00,55.6,45.9,30.03,West,270,1.3,11.1,70,0.00,,,1.60,WUHU21636XXSP,2013-09-12 23:17:00,
2013-09-12 19:22:00,55.6,45.9,30.03,NW,315,3.1,12.7,70,0.00,,,1.60,WUHU21636XXSP,2013-09-12 23:22:00,
2013-09-12 19:27:00,55.4,46.0,30.03,NW,315,0.0,18.5,71,0.00,,,1.60,WUHU21636XXSP,2013-09-12 23:27:00,
2013-09-12 19:32:00,55.2,45.9,30.03,North,0,2.6,18.5,71,0.00,,,1.60,WUHU21636XXSP,2013-09-12 23:32:00,
2013-09-12 19:37:00,55.0,45.5,30.03,NW,315,0.4,3.5,70,0.00,,,1.60,WUHU21636XXSP,2013-09-12 23:37:00,
2013-09-12 19:42:00,55.0,45.7,30.03,North,0,2.2,7.6,71,0.00,,,1.60,WUHU21636XXSP,2013-09-12 23:42:00,
2013-09-12 19:47:00,55.0,45.5,30.03,NNW,337,4.4,20.1,70,0.00,,,1.60,WUHU21636XXSP,2013-09-12 23:47:00,
2013-09-12 19:52:00,54.9,45.5,30.03,North,0,0.2,20.1,71,0.00,,,1.60,WUHU21636XXSP,2013-09-12 23:52:00,
2013-09-12 19:57:00,54.7,45.3,30.03,NNE,22,0.0,13.6,72,0.00,,,1.60,WUHU21636XXSP,2013-09-12 23:57:00,
2013-09-12 20:02:00,54.7,45.7,30.03,NNE,22,0.0,4.0,72,0.00,,,1.60,WUHU21636XXSP,2013-09-13 00:02:00,
2013-09-12 20:07:00,54.5,45.5,30.03,NNW,337,1.5,12.0,73,0.00,,,1.60,WUHU21636XXSP,2013-09-13 00:07:00,
2013-09-12 20:12:00,54.1,45.1,30.03,NW,315,3.5,25.5,72,0.00,,,1.60,WUHU21636XXSP,2013-09-13 00:12:00,
2013-09-12 20:17:00,54.1,45.1,30.03,NW,315,4.6,25.5,72,0.00,,,1.60,WUHU21636XXSP,2013-09-13 00:17:00,
2013-09-12 20:22:00,54.0,45.3,30.03,North,0,5.5,22.8,73,0.00,,,1.60,WUHU21636XXSP,2013-09-13 00:22:00,
2013-09-12 20:27:00,54.0,44.8,30.04,NW,315,7.1,23.9,73,0.00,,,1.60,WUHU21636XXSP,2013-09-13 00:27:00,
2013-09-12 20:32:00,53.8,44.8,30.04,North,0,5.1,23.9,72,0.00,,,1.60,WUHU21636XXSP,2013-09-13 00:32:00,
2013-09-12 20:37:00,53.6,44.8,30.04,NNW,337,2.0,16.7,72,0.00,,,1.60,WUHU21636XXSP,2013-09-13 00:37:00,
2013-09-12 20:42:00,53.4,44.2,30.04,NNE,22,8.9,16.7,71,0.00,,,1.60,WUHU21636XXSP,2013-09-13 00:42:00,
2013-09-12 20:47:00,53.4,44.2,30.05,NNW,337,7.3,16.5,71,0.00,,,1.60,WUHU21636XXSP,2013-09-13 00:47:00,
2013-09-12 20:52:00,53.2,44.1,30.05,North,0,6.9,21.4,71,0.00,,,1.60,WUHU21636XXSP,2013-09-13 00:52:00,
2013-09-12 20:57:00,53.2,44.1,30.05,NW,315,3.5,21.4,72,0.00,,,1.60,WUHU21636XXSP,2013-09-13 00:57:00,
2013-09-12 21:02:00,53.1,44.2,30.05,North,0,4.0,19.2,72,0.00,,,1.60,WUHU21636XXSP,2013-09-13 01:02:00,
2013-09-12 21:07:00,53.1,44.2,30.05,NW,315,0.6,18.7,73,0.00,,,1.60,WUHU21636XXSP,2013-09-13 01:07:00,
2013-09-12 21:12:00,53.1,44.2,30.05,NNW,337,3.1,6.4,73,0.00,,,1.60,WUHU21636XXSP,2013-09-13 01:12:00,
2013-09-12 21:17:00,52.9,44.4,30.05,NNW,337,4.9,12.9,73,0.00,,,1.60,WUHU21636XXSP,2013-09-13 01:17:00,
2013-09-12 21:22:00,52.9,44.4,30.05,NW,315,8.5,12.9,73,0.00,,,1.60,WUHU21636XXSP,2013-09-13 01:22:00,
2013-09-12 21:27:00,52.9,44.8,30.05,NW,315,4.9,12.9,74,0.00,,,1.60,WUHU21636XXSP,2013-09-13 01:27:00,
2013-09-12 21:32:00,52.9,44.8,30.05,West,270,3.8,10.0,76,0.00,,,1.60,WUHU21636XXSP,2013-09-13 01:32:00,
2013-09-12 21:37:00,52.7,46.0,30.06,NNE,22,0.0,4.9,78,0.00,,,1.60,WUHU21636XXSP,2013-09-13 01:37:00,
2013-09-12 21:42:00,52.5,45.9,30.06,ESE,112,0.6,9.6,79,0.00,,,1.60,WUHU21636XXSP,2013-09-13 01:42:00,
2013-09-12 21:47:00,52.3,46.0,30.06,WNW,292,0.0,9.6,79,0.00,,,1.60,WUHU21636XXSP,2013-09-13 01:47:00,
2013-09-12 21:52:00,52.0,46.0,30.06,NW,315,0.0,1.7,80,0.00,,,1.60,WUHU21636XXSP,2013-09-13 01:52:00,
2013-09-12 21:57:00,52.0,46.0,30.06,North,0,0.0,1.7,81,0.00,,,1.60,WUHU21636XXSP,2013-09-13 01:57:00,
2013-09-12 22:02:00,51.4,46.6,30.06,West,270,0.0,3.8,84,0.00,,,1.60,WUHU21636XXSP,2013-09-13 02:02:00,
2013-09-12 22:07:00,51.1,46.9,30.06,NW,315,0.0,3.8,86,0.00,,,1.60,WUHU21636XXSP,2013-09-13 02:07:00,
2013-09-12 22:12:00,50.9,46.9,30.06,NW,315,1.3,7.3,87,0.00,,,1.60,WUHU21636XXSP,2013-09-13 02:12:00,
2013-09-12 22:18:00,50.7,46.8,30.06,WNW,292,0.0,9.6,88,0.02,,,1.60,WUHU21636XXSP,2013-09-13 02:18:00,
2013-09-12 22:23:00,50.5,46.9,30.06,NW,315,0.0,9.6,88,0.02,,,1.60,WUHU21636XXSP,2013-09-13 02:23:00,
2013-09-12 22:27:00,50.5,46.9,30.06,West,270,0.0,7.1,87,0.02,,,1.60,WUHU21636XXSP,2013-09-13 02:27:00,
2013-09-12 22:32:00,50.5,46.9,30.05,NNW,337,0.0,0.0,88,0.02,,,1.60,WUHU21636XXSP,2013-09-13 02:32:00,
2013-09-12 22:37:00,50.5,46.9,30.06,NNW,337,0.0,0.0,88,0.02,,,1.60,WUHU21636XXSP,2013-09-13 02:37:00,
2013-09-12 22:43:00,50.5,46.9,30.05,NW,315,0.0,0.0,88,0.02,,,1.60,WUHU21636XXSP,2013-09-13 02:43:00,
2013-09-12 22:48:00,50.5,46.9,30.05,NNW,337,0.6,11.1,88,0.02,,,1.60,WUHU21636XXSP,2013-09-13 02:48:00,
2013-09-12 22:53:00,50.5,46.9,30.05,NNW,337,0.0,11.1,88,0.02,,,1.60,WUHU21636XXSP,2013-09-13 02:53:00,
2013-09-12 22:58:00,50.5,46.9,30.05,West,270,0.0,0.6,88,0.02,,,1.60,WUHU21636XXSP,2013-09-13 02:58:00,
2013-09-12 23:03:00,50.5,46.9,30.05,NW,315,0.0,0.0,88,0.02,,,1.60,WUHU21636XXSP,2013-09-13 03:03:00,
2013-09-12 23:08:00,50.5,46.9,30.05,NW,315,0.8,0.8,88,0.02,,,1.60,WUHU21636XXSP,2013-09-13 03:08:00,
2013-09-12 23:13:00,50.5,46.9,30.06,WNW,292,0.6,0.8,88,0.02,,,1.60,WUHU21636XXSP,2013-09-13 03:13:00,
2013-09-12 23:18:00,50.5,46.9,30.06,West,270,0.0,0.6,88,0.02,,,1.60,WUHU21636XXSP,2013-09-13 03:18:00,
2013-09-12 23:23:00,50.5,46.9,30.06,NW,315,2.4,11.1,88,0.02,,,1.60,WUHU21636XXSP,2013-09-13 03:23:00,
2013-09-12 23:28:00,50.5,46.9,30.06,NW,315,0.0,11.1,88,0.02,,,1.60,WUHU21636XXSP,2013-09-13 03:28:00,
2013-09-12 23:33:00,50.5,46.9,30.06,West,270,2.4,11.1,87,0.02,,,1.60,WUHU21636XXSP,2013-09-13 03:33:00,
2013-09-12 23:38:00,50.5,46.9,30.06,NW,315,0.0,11.1,88,0.02,,,1.60,WUHU21636XXSP,2013-09-13 03:38:00,
2013-09-12 23:43:00,50.5,46.9,30.06,NW,315,0.0,2.6,88,0.02,,,1.60,WUHU21636XXSP,2013-09-13 03:43:00,
2013-09-12 23:48:00,50.5,46.9,30.06,WNW,292,1.1,4.2,88,0.02,,,1.60,WUHU21636XXSP,2013-09-13 03:48:00,
2013-09-12 23:53:00,50.5,46.9,30.06,NW,315,0.0,4.2,88,0.02,,,1.60,WUHU21636XXSP,2013-09-13 03:53:00,
2013-09-12 23:58:00,50.7,46.8,30.06,NW,315,0.0,1.1,87,0.02,,,1.60,WUHU21636XXSP,2013-09-13 03:58:00,